Time,TemperatureF,DewpointF,PressureIn,WindDirection,WindDirectionDegrees,WindSpeedMPH,WindSpeedGustMPH,Humidity,HourlyPrecipIn,Conditions,Clouds,dailyrainin,SoftwareType,DateUTC
2013-03-03 00:00:00,52.9,38.5,29.94,SSE,168,0.0,0.0,58,0.00,CLR,,0.00,WeatherDisplay:10.37,2013-03-03 08:00:00,
2013-03-03 00:05:00,52.8,38.9,29.94,SSE,168,0.0,0.0,59,0.00,CLR,,0.00,WeatherDisplay:10.37,2013-03-03 08:05:00,
2013-03-03 00:10:00,52.6,38.7,29.94,SSE,168,0.0,0.0,59,0.00,CLR,,0.00,WeatherDisplay:10.37,2013-03-03 08:10:00,
2013-03-03 00:15:00,52.5,39.0,29.95,SSE,168,0.0,0.0,60,0.00,CLR,,0.00,WeatherDisplay:10.37,2013-03-03 08:15:00,
2013-03-03 00:21:00,52.3,39.2,29.94,SSE,168,0.0,0.0,61,0.00,CLR,,0.00,WeatherDisplay:10.37,2013-03-03 08:21:00,
2013-03-03 00:26:00,52.2,39.1,29.94,SSE,168,0.0,0.0,61,0.00,CLR,,0.00,WeatherDisplay:10.37,2013-03-03 08:26:00,
2013-03-03 00:31:00,52.2,39.1,29.94,SSE,165,0.0,0.0,61,0.00,CLR,,0.00,WeatherDisplay:10.37,2013-03-03 08:31:00,
2013-03-03 00:36:00,52.2,39.1,29.94,SE,130,0.0,0.0,61,0.00,CLR,,0.00,WeatherDisplay:10.37,2013-03-03 08:36:00,
2013-03-03 00:41:00,52.0,39.0,29.94,SSE,167,0.0,0.0,61,0.00,CLR,,0.00,WeatherDisplay:10.37,2013-03-03 08:41:00,
2013-03-03 00:46:00,52.0,38.5,29.94,SSE,167,0.0,0.0,60,0.00,CLR,,0.00,WeatherDisplay:10.37,2013-03-03 08:46:00,
2013-03-03 00:51:00,52.0,39.0,29.94,SSE,152,0.0,0.0,61,0.00,CLR,,0.00,WeatherDisplay:10.37,2013-03-03 08:51:00,
2013-03-03 00:56:00,52.2,39.1,29.94,South,175,0.0,0.0,61,0.00,CLR,,0.00,WeatherDisplay:10.37,2013-03-03 08:56:00,
2013-03-03 01:01:00,52.3,39.2,29.94,SSE,152,0.0,0.0,61,0.00,CLR,,0.00,WeatherDisplay:10.37,2013-03-03 09:01:00,
2013-03-03 01:06:00,52.5,39.4,29.94,South,174,0.0,0.0,61,0.00,CLR,,0.00,WeatherDisplay:10.37,2013-03-03 09:06:00,
2013-03-03 01:11:00,52.6,39.1,29.94,SSE,158,0.0,0.0,60,0.00,CLR,,0.00,WeatherDisplay:10.37,2013-03-03 09:11:00,
2013-03-03 01:16:00,52.6,39.1,29.93,South,185,0.0,0.0,60,0.00,CLR,,0.00,WeatherDisplay:10.37,2013-03-03 09:16:00,
2013-03-03 01:21:00,52.6,39.1,29.94,SSE,164,0.0,0.0,60,0.00,CLR,,0.00,WeatherDisplay:10.37,2013-03-03 09:21:00,
2013-03-03 01:26:00,52.6,39.1,29.94,South,179,0.0,0.0,60,0.00,CLR,,0.00,WeatherDisplay:10.37,2013-03-03 09:26:00,
2013-03-03 01:31:00,52.6,39.1,29.94,SSW,208,0.0,0.0,60,0.00,CLR,,0.00,WeatherDisplay:10.37,2013-03-03 09:31:00,
2013-03-03 01:36:00,52.6,39.1,29.94,SSW,205,0.0,0.0,60,0.00,CLR,,0.00,WeatherDisplay:10.37,2013-03-03 09:36:00,
2013-03-03 01:41:00,52.5,39.0,29.94,South,186,0.0,0.0,60,0.00,CLR,,0.00,WeatherDisplay:10.37,2013-03-03 09:41:00,
2013-03-03 01:46:00,52.5,39.4,29.94,South,181,0.0,0.0,61,0.00,CLR,,0.00,WeatherDisplay:10.37,2013-03-03 09:46:00,
2013-03-03 01:51:00,52.5,39.4,29.94,South,178,0.0,0.0,61,0.00,CLR,,0.00,WeatherDisplay:10.37,2013-03-03 09:51:00,
2013-03-03 01:56:00,52.3,40.1,29.95,South,191,0.0,0.0,63,0.00,CLR,,0.00,WeatherDisplay:10.37,2013-03-03 09:56:00,
2013-03-03 02:01:00,52.3,40.1,29.94,South,191,0.0,0.0,63,0.00,CLR,,0.00,WeatherDisplay:10.37,2013-03-03 10:01:00,
2013-03-03 02:06:00,52.3,40.5,29.94,SE,141,0.0,0.0,64,0.00,CLR,,0.00,WeatherDisplay:10.37,2013-03-03 10:06:00,
2013-03-03 02:11:00,52.3,40.5,29.94,SE,141,0.0,0.0,64,0.00,CLR,,0.00,WeatherDisplay:10.37,2013-03-03 10:11:00,
2013-03-03 02:16:00,52.2,40.4,29.94,SSE,148,0.0,0.0,64,0.00,CLR,,0.00,WeatherDisplay:10.37,2013-03-03 10:16:00,
2013-03-03 02:21:00,52.2,40.4,29.93,SSE,150,0.0,0.0,64,0.00,CLR,,0.00,WeatherDisplay:10.37,2013-03-03 10:21:00,
2013-03-03 02:26:00,52.0,40.2,29.93,SE,143,0.0,0.0,64,0.00,CLR,,0.00,WeatherDisplay:10.37,2013-03-03 10:26:00,
2013-03-03 02:31:00,52.0,40.2,29.93,SSE,152,0.0,0.0,64,0.00,CLR,,0.00,WeatherDisplay:10.37,2013-03-03 10:31:00,
2013-03-03 02:36:00,52.0,40.2,29.92,SSE,167,0.0,0.0,64,0.00,CLR,,0.00,WeatherDisplay:10.37,2013-03-03 10:36:00,
2013-03-03 02:41:00,51.9,40.1,29.92,SSE,151,0.0,0.0,64,0.00,CLR,,0.00,WeatherDisplay:10.37,2013-03-03 10:41:00,
2013-03-03 02:46:00,51.9,40.1,29.92,SSE,168,0.0,0.0,64,0.00,CLR,,0.00,WeatherDisplay:10.37,2013-03-03 10:46:00,
2013-03-03 02:51:00,51.9,40.5,29.92,SSE,167,0.0,0.0,65,0.00,CLR,,0.00,WeatherDisplay:10.37,2013-03-03 10:51:00,
2013-03-03 02:56:00,51.7,40.3,29.91,SSE,147,0.0,0.0,65,0.00,CLR,,0.00,WeatherDisplay:10.37,2013-03-03 10:56:00,
2013-03-03 03:01:00,51.7,40.7,29.93,SE,138,0.0,0.0,66,0.00,CLR,,0.00,WeatherDisplay:10.37,2013-03-03 11:01:00,
2013-03-03 03:06:00,51.7,40.7,29.92,SSE,157,0.0,0.0,66,0.00,CLR,,0.00,WeatherDisplay:10.37,2013-03-03 11:06:00,
2013-03-03 03:11:00,51.7,40.7,29.92,South,179,0.0,0.0,66,0.00,CLR,,0.00,WeatherDisplay:10.37,2013-03-03 11:11:00,
2013-03-03 03:16:00,51.6,41.0,29.92,SE,137,0.0,0.0,67,0.00,CLR,,0.00,WeatherDisplay:10.37,2013-03-03 11:16:00,
2013-03-03 03:21:00,51.6,41.4,29.92,SE,137,0.0,0.0,68,0.00,CLR,,0.00,WeatherDisplay:10.37,2013-03-03 11:21:00,
2013-03-03 03:26:00,51.6,41.8,29.92,SE,137,0.0,0.0,69,0.00,CLR,,0.00,WeatherDisplay:10.37,2013-03-03 11:26:00,
2013-03-03 03:31:00,51.4,41.9,29.93,SE,137,0.0,0.0,70,0.00,CLR,,0.00,WeatherDisplay:10.37,2013-03-03 11:31:00,
2013-03-03 03:36:00,51.4,42.7,29.93,SE,138,0.0,0.0,72,0.00,CLR,,0.00,WeatherDisplay:10.37,2013-03-03 11:36:00,
2013-03-03 03:41:00,51.3,42.6,29.93,South,186,0.0,0.0,72,0.00,CLR,,0.00,WeatherDisplay:10.37,2013-03-03 11:41:00,
2013-03-03 03:46:00,51.1,42.4,29.93,SSE,168,0.0,0.0,72,0.00,CLR,,0.00,WeatherDisplay:10.37,2013-03-03 11:46:00,
2013-03-03 03:51:00,51.0,42.6,29.93,SSE,152,0.0,0.0,73,0.00,CLR,,0.00,WeatherDisplay:10.37,2013-03-03 11:51:00,
2013-03-03 03:56:00,50.8,42.5,29.93,South,172,0.0,0.0,73,0.00,CLR,,0.00,WeatherDisplay:10.37,2013-03-03 11:56:00,
2013-03-03 04:01:00,50.7,42.4,29.93,South,172,0.0,0.0,73,0.00,CLR,,0.00,WeatherDisplay:10.37,2013-03-03 12:01:00,
2013-03-03 04:06:00,50.7,42.7,29.93,SSE,167,0.0,0.0,74,0.00,CLR,,0.00,WeatherDisplay:10.37,2013-03-03 12:06:00,
2013-03-03 04:11:00,50.5,42.2,29.93,SSE,154,0.0,0.0,73,0.00,CLR,,0.00,WeatherDisplay:10.37,2013-03-03 12:11:00,
2013-03-03 04:16:00,50.5,42.2,29.93,SSE,147,0.0,0.0,73,0.00,CLR,,0.00,WeatherDisplay:10.37,2013-03-03 12:16:00,
2013-03-03 04:21:00,50.4,42.1,29.93,SSE,165,0.0,0.0,73,0.00,CLR,,0.00,WeatherDisplay:10.37,2013-03-03 12:21:00,
2013-03-03 04:26:00,50.4,42.1,29.93,SSE,164,0.0,0.0,73,0.00,CLR,,0.00,WeatherDisplay:10.37,2013-03-03 12:26:00,
2013-03-03 04:31:00,50.2,41.9,29.93,South,178,0.0,0.0,73,0.00,CLR,,0.00,WeatherDisplay:10.37,2013-03-03 12:31:00,
2013-03-03 04:36:00,50.2,42.2,29.93,SSE,151,0.0,0.0,74,0.00,CLR,,0.00,WeatherDisplay:10.37,2013-03-03 12:36:00,
2013-03-03 04:41:00,50.2,42.2,29.93,SSE,154,0.0,0.0,74,0.00,CLR,,0.00,WeatherDisplay:10.37,2013-03-03 12:41:00,
2013-03-03 04:46:00,50.1,42.5,29.93,South,174,0.0,0.0,75,0.00,CLR,,0.00,WeatherDisplay:10.37,2013-03-03 12:46:00,
2013-03-03 04:51:00,50.1,42.1,29.92,SSE,158,0.0,0.0,74,0.00,CLR,,0.00,WeatherDisplay:10.37,2013-03-03 12:51:00,
2013-03-03 04:56:00,50.1,42.1,29.92,South,186,0.0,0.0,74,0.00,CLR,,0.00,WeatherDisplay:10.37,2013-03-03 12:56:00,
2013-03-03 05:01:00,50.1,42.1,29.93,SSW,199,0.0,0.0,74,0.00,CLR,,0.00,WeatherDisplay:10.37,2013-03-03 13:01:00,
2013-03-03 05:06:00,50.1,42.1,29.93,SSW,198,0.0,0.0,74,0.00,CLR,,0.00,WeatherDisplay:10.37,2013-03-03 13:06:00,
2013-03-03 05:12:00,49.9,41.9,29.93,South,171,0.0,0.0,74,0.00,CLR,,0.00,WeatherDisplay:10.37,2013-03-03 13:12:00,
2013-03-03 05:17:00,49.9,41.9,29.93,South,171,0.0,0.0,74,0.00,CLR,,0.00,WeatherDisplay:10.37,2013-03-03 13:17:00,
2013-03-03 05:22:00,49.8,41.8,29.93,SSW,193,0.0,0.0,74,0.00,CLR,,0.00,WeatherDisplay:10.37,2013-03-03 13:22:00,
2013-03-03 05:27:00,49.8,41.8,29.94,South,178,0.0,0.0,74,0.00,CLR,,0.00,WeatherDisplay:10.37,2013-03-03 13:27:00,
2013-03-03 05:32:00,49.8,41.8,29.93,South,182,0.0,0.0,74,0.00,CLR,,0.00,WeatherDisplay:10.37,2013-03-03 13:32:00,
2013-03-03 05:37:00,49.6,41.7,29.93,South,181,0.0,0.0,74,0.00,CLR,,0.00,WeatherDisplay:10.37,2013-03-03 13:37:00,
2013-03-03 05:42:00,49.6,41.7,29.93,SE,127,0.0,0.0,74,0.00,CLR,,0.00,WeatherDisplay:10.37,2013-03-03 13:42:00,
2013-03-03 05:47:00,49.6,41.7,29.93,SSE,152,0.0,0.0,74,0.00,CLR,,0.00,WeatherDisplay:10.37,2013-03-03 13:47:00,
2013-03-03 05:52:00,49.5,41.2,29.93,South,179,0.0,0.0,73,0.00,CLR,,0.00,WeatherDisplay:10.37,2013-03-03 13:52:00,
2013-03-03 05:57:00,49.5,41.6,29.93,South,191,0.0,0.0,74,0.00,CLR,,0.00,WeatherDisplay:10.37,2013-03-03 13:57:00,
2013-03-03 06:02:00,49.5,41.6,29.93,SSE,165,0.0,0.0,74,0.00,CLR,,0.00,WeatherDisplay:10.37,2013-03-03 14:02:00,
2013-03-03 06:07:00,49.5,41.6,29.93,SSE,161,0.0,0.0,74,0.00,CLR,,0.00,WeatherDisplay:10.37,2013-03-03 14:07:00,
2013-03-03 06:12:00,49.5,41.6,29.93,SSE,155,0.0,0.0,74,0.00,CLR,,0.00,WeatherDisplay:10.37,2013-03-03 14:12:00,
2013-03-03 06:17:00,49.5,41.6,29.93,SSE,165,0.0,0.0,74,0.00,CLR,,0.00,WeatherDisplay:10.37,2013-03-03 14:17:00,
2013-03-03 06:22:00,49.5,41.6,29.93,SSE,167,0.0,0.0,74,0.00,CLR,,0.00,WeatherDisplay:10.37,2013-03-03 14:22:00,
2013-03-03 06:27:00,49.4,41.5,29.92,SSE,151,0.0,0.0,74,0.00,CLR,,0.00,WeatherDisplay:10.37,2013-03-03 14:27:00,
2013-03-03 06:32:00,49.4,41.5,29.93,South,179,0.0,0.0,74,0.00,CLR,,0.00,WeatherDisplay:10.37,2013-03-03 14:32:00,
2013-03-03 06:37:00,49.4,41.5,29.93,SSE,157,0.0,0.0,74,0.00,CLR,,0.00,WeatherDisplay:10.37,2013-03-03 14:37:00,
2013-03-03 06:42:00,49.4,41.5,29.93,SSE,164,0.0,0.0,74,0.00,CLR,,0.00,WeatherDisplay:10.37,2013-03-03 14:42:00,
2013-03-03 06:47:00,49.4,41.5,29.93,South,174,0.0,0.0,74,0.00,CLR,,0.00,WeatherDisplay:10.37,2013-03-03 14:47:00,
2013-03-03 06:52:00,49.4,41.5,29.93,SSE,165,0.0,0.0,74,0.00,CLR,,0.00,WeatherDisplay:10.37,2013-03-03 14:52:00,
2013-03-03 06:57:00,49.4,41.5,29.93,SE,133,0.0,0.0,74,0.00,CLR,,0.00,WeatherDisplay:10.37,2013-03-03 14:57:00,
2013-03-03 07:02:00,49.4,41.5,29.94,SE,136,0.0,0.0,74,0.00,CLR,,0.00,WeatherDisplay:10.37,2013-03-03 15:02:00,
2013-03-03 07:07:00,49.4,41.5,29.94,SSW,196,0.0,0.0,74,0.00,CLR,,0.00,WeatherDisplay:10.37,2013-03-03 15:07:00,
2013-03-03 07:12:00,49.4,41.5,29.94,SSE,152,0.0,0.0,74,0.00,CLR,,0.00,WeatherDisplay:10.37,2013-03-03 15:12:00,
2013-03-03 07:17:00,49.4,41.5,29.94,SSE,150,0.0,0.0,74,0.00,CLR,,0.00,WeatherDisplay:10.37,2013-03-03 15:17:00,
2013-03-03 07:22:00,49.4,41.5,29.94,East,89,0.0,0.0,74,0.00,CLR,,0.00,WeatherDisplay:10.37,2013-03-03 15:22:00,
2013-03-03 07:27:00,49.4,41.5,29.94,East,93,0.0,0.0,74,0.00,CLR,,0.00,WeatherDisplay:10.37,2013-03-03 15:27:00,
2013-03-03 07:32:00,49.4,41.5,29.94,ESE,112,0.0,0.0,74,0.00,CLR,,0.00,WeatherDisplay:10.37,2013-03-03 15:32:00,
2013-03-03 07:37:00,49.5,41.6,29.95,SE,126,0.0,0.0,74,0.00,CLR,,0.00,WeatherDisplay:10.37,2013-03-03 15:37:00,
2013-03-03 07:42:00,49.5,41.6,29.95,SE,138,0.0,0.0,74,0.00,CLR,,0.00,WeatherDisplay:10.37,2013-03-03 15:42:00,
2013-03-03 07:47:00,49.5,41.6,29.94,SE,138,0.0,0.0,74,0.00,CLR,,0.00,WeatherDisplay:10.37,2013-03-03 15:47:00,
2013-03-03 07:52:00,49.6,41.7,29.94,SSE,154,0.0,0.0,74,0.00,CLR,,0.00,WeatherDisplay:10.37,2013-03-03 15:52:00,
2013-03-03 07:57:00,49.6,41.7,29.94,SSE,154,0.0,0.0,74,0.00,CLR,,0.00,WeatherDisplay:10.37,2013-03-03 15:57:00,
2013-03-03 08:02:00,49.8,41.8,29.94,SE,141,0.0,0.0,74,0.00,CLR,,0.00,WeatherDisplay:10.37,2013-03-03 16:02:00,
2013-03-03 08:07:00,49.9,41.6,29.94,SSE,164,0.0,0.0,73,0.00,CLR,,0.00,WeatherDisplay:10.37,2013-03-03 16:07:00,
2013-03-03 08:12:00,50.1,41.4,29.94,SSE,161,0.0,0.0,72,0.00,CLR,,0.00,WeatherDisplay:10.37,2013-03-03 16:12:00,
2013-03-03 08:17:00,50.2,41.5,29.94,South,174,0.0,0.0,72,0.00,CLR,,0.00,WeatherDisplay:10.37,2013-03-03 16:17:00,
2013-03-03 08:22:00,50.4,41.3,29.94,South,174,0.0,0.0,71,0.00,CLR,,0.00,WeatherDisplay:10.37,2013-03-03 16:22:00,
2013-03-03 08:27:00,50.4,41.3,29.94,South,174,0.0,0.0,71,0.00,CLR,,0.00,WeatherDisplay:10.37,2013-03-03 16:27:00,
2013-03-03 08:32:00,50.5,41.1,29.93,SSE,154,0.0,0.0,70,0.00,CLR,,0.00,WeatherDisplay:10.37,2013-03-03 16:32:00,
2013-03-03 08:37:00,50.5,41.1,29.93,SSE,157,0.0,0.0,70,0.00,CLR,,0.00,WeatherDisplay:10.37,2013-03-03 16:37:00,
2013-03-03 08:42:00,50.8,41.7,29.93,South,169,0.0,0.0,71,0.00,CLR,,0.00,WeatherDisplay:10.37,2013-03-03 16:42:00,
2013-03-03 08:47:00,51.0,41.6,29.93,SE,130,0.0,0.0,70,0.00,CLR,,0.00,WeatherDisplay:10.37,2013-03-03 16:47:00,
2013-03-03 08:52:00,51.3,41.8,29.93,ESE,102,0.0,0.0,70,0.00,CLR,,0.00,WeatherDisplay:10.37,2013-03-03 16:52:00,
2013-03-03 08:57:00,51.7,41.9,29.93,SSE,164,0.0,0.0,69,0.00,CLR,,0.00,WeatherDisplay:10.37,2013-03-03 16:57:00,
2013-03-03 09:02:00,52.0,41.8,29.94,SSE,147,0.0,0.0,68,0.00,CLR,,0.00,WeatherDisplay:10.37,2013-03-03 17:02:00,
2013-03-03 09:07:00,52.3,42.0,29.94,SSE,168,0.0,0.0,68,0.00,CLR,,0.00,WeatherDisplay:10.37,2013-03-03 17:07:00,
2013-03-03 09:12:00,52.6,42.7,29.93,South,169,0.0,0.0,69,0.00,CLR,,0.00,WeatherDisplay:10.37,2013-03-03 17:12:00,
2013-03-03 09:17:00,52.8,41.7,29.93,SSE,164,0.0,0.0,66,0.00,CLR,,0.00,WeatherDisplay:10.37,2013-03-03 17:17:00,
2013-03-03 09:22:00,53.1,42.0,29.93,South,174,0.0,0.0,66,0.00,CLR,,0.00,WeatherDisplay:10.37,2013-03-03 17:22:00,
2013-03-03 09:27:00,53.2,41.7,29.93,East,86,0.0,0.0,65,0.00,CLR,,0.00,WeatherDisplay:10.37,2013-03-03 17:27:00,
2013-03-03 09:32:00,53.3,42.2,29.93,ESE,107,0.0,0.0,66,0.00,CLR,,0.00,WeatherDisplay:10.37,2013-03-03 17:32:00,
2013-03-03 09:37:00,53.5,42.4,29.93,SW,215,0.0,0.0,66,0.00,CLR,,0.00,WeatherDisplay:10.37,2013-03-03 17:37:00,
2013-03-03 09:43:00,53.5,42.0,29.93,SW,217,0.0,0.0,65,0.00,CLR,,0.00,WeatherDisplay:10.37,2013-03-03 17:43:00,
2013-03-03 09:48:00,53.5,42.4,29.93,SSW,202,0.0,0.0,66,0.00,CLR,,0.00,WeatherDisplay:10.37,2013-03-03 17:48:00,
2013-03-03 09:53:00,53.6,42.5,29.93,SSE,157,0.0,0.0,66,0.00,CLR,,0.00,WeatherDisplay:10.37,2013-03-03 17:53:00,
2013-03-03 09:58:00,53.8,41.5,29.93,South,178,0.0,0.0,63,0.00,CLR,,0.00,WeatherDisplay:10.37,2013-03-03 17:58:00,
2013-03-03 10:03:00,53.8,41.5,29.94,SSW,195,0.0,0.0,63,0.00,CLR,,0.00,WeatherDisplay:10.37,2013-03-03 18:03:00,
2013-03-03 10:08:00,53.6,41.7,29.94,SE,127,0.0,0.0,64,0.00,CLR,,0.00,WeatherDisplay:10.37,2013-03-03 18:08:00,
2013-03-03 10:13:00,53.5,41.6,29.94,SSE,157,0.0,0.0,64,0.00,CLR,,0.00,WeatherDisplay:10.37,2013-03-03 18:13:00,
2013-03-03 10:18:00,53.3,41.4,29.94,SE,136,0.0,0.0,64,0.00,CLR,,0.00,WeatherDisplay:10.37,2013-03-03 18:18:00,
2013-03-03 10:23:00,53.3,41.8,29.94,ESE,116,0.0,0.0,65,0.00,CLR,,0.00,WeatherDisplay:10.37,2013-03-03 18:23:00,
2013-03-03 10:28:00,53.3,41.8,29.94,SSE,161,0.0,0.0,65,0.00,CLR,,0.00,WeatherDisplay:10.37,2013-03-03 18:28:00,
2013-03-03 10:33:00,53.3,41.4,29.94,SSE,167,0.0,0.0,64,0.00,CLR,,0.00,WeatherDisplay:10.37,2013-03-03 18:33:00,
2013-03-03 10:38:00,53.2,41.3,29.94,ENE,72,0.0,0.0,64,0.00,CLR,,0.00,WeatherDisplay:10.37,2013-03-03 18:38:00,
2013-03-03 10:43:00,53.2,42.1,29.94,South,178,0.0,0.0,66,0.00,CLR,,0.00,WeatherDisplay:10.37,2013-03-03 18:43:00,
2013-03-03 10:48:00,53.3,42.6,29.94,South,178,0.0,0.0,67,0.00,CLR,,0.00,WeatherDisplay:10.37,2013-03-03 18:48:00,
2013-03-03 10:53:00,53.3,43.0,29.94,SSW,192,0.0,0.0,68,0.00,CLR,,0.00,WeatherDisplay:10.37,2013-03-03 18:53:00,
2013-03-03 10:58:00,53.3,43.4,29.94,South,169,0.0,0.0,69,0.00,CLR,,0.00,WeatherDisplay:10.37,2013-03-03 18:58:00,
2013-03-03 11:03:00,53.2,42.9,29.94,South,189,0.0,0.0,68,0.00,CLR,,0.00,WeatherDisplay:10.37,2013-03-03 19:03:00,
2013-03-03 11:08:00,53.1,43.2,29.94,South,189,0.0,0.0,69,0.00,CLR,,0.00,WeatherDisplay:10.37,2013-03-03 19:08:00,
2013-03-03 11:13:00,53.1,43.9,29.94,South,189,0.0,0.0,71,0.00,CLR,,0.00,WeatherDisplay:10.37,2013-03-03 19:13:00,
2013-03-03 11:18:00,52.8,43.7,29.94,South,169,0.0,0.0,71,0.00,CLR,,0.00,WeatherDisplay:10.37,2013-03-03 19:18:00,
2013-03-03 11:23:00,52.8,43.7,29.94,South,169,0.0,0.0,71,0.00,CLR,,0.00,WeatherDisplay:10.37,2013-03-03 19:23:00,
2013-03-03 11:28:00,52.6,43.5,29.95,SE,140,0.0,0.0,71,0.00,CLR,,0.00,WeatherDisplay:10.37,2013-03-03 19:28:00,
2013-03-03 11:33:00,52.6,43.8,29.94,SSE,148,0.0,0.0,72,0.00,CLR,,0.00,WeatherDisplay:10.37,2013-03-03 19:33:00,
2013-03-03 11:38:00,52.6,44.5,29.94,SSE,148,0.0,0.0,74,0.00,CLR,,0.00,WeatherDisplay:10.37,2013-03-03 19:38:00,
2013-03-03 11:43:00,52.6,44.5,29.94,SSE,160,0.0,0.0,74,0.00,CLR,,0.00,WeatherDisplay:10.37,2013-03-03 19:43:00,
2013-03-03 11:48:00,52.5,44.8,29.94,SSE,151,0.0,0.0,75,0.00,CLR,,0.00,WeatherDisplay:10.37,2013-03-03 19:48:00,
2013-03-03 11:53:00,52.3,44.6,29.94,SE,124,0.0,0.0,75,0.00,CLR,,0.00,WeatherDisplay:10.37,2013-03-03 19:53:00,
2013-03-03 11:58:00,52.0,44.0,29.94,SE,141,0.0,0.0,74,0.00,CLR,,0.00,WeatherDisplay:10.37,2013-03-03 19:58:00,
2013-03-03 12:03:00,52.0,44.3,29.94,SSE,167,0.0,0.0,75,0.00,CLR,,0.00,WeatherDisplay:10.37,2013-03-03 20:03:00,
2013-03-03 12:08:00,52.0,44.7,29.94,South,169,0.0,0.0,76,0.00,CLR,,0.00,WeatherDisplay:10.37,2013-03-03 20:08:00,
2013-03-03 12:13:00,52.2,44.2,29.94,SSE,158,0.0,0.0,74,0.00,CLR,,0.00,WeatherDisplay:10.37,2013-03-03 20:13:00,
2013-03-03 12:18:00,52.3,42.8,29.94,South,189,0.0,0.0,70,0.00,CLR,,0.00,WeatherDisplay:10.37,2013-03-03 20:18:00,
2013-03-03 12:23:00,52.5,43.0,29.95,SSW,193,0.0,0.0,70,0.00,CLR,,0.00,WeatherDisplay:10.37,2013-03-03 20:23:00,
2013-03-03 12:28:00,52.8,43.3,29.94,SW,216,0.0,0.0,70,0.00,CLR,,0.00,WeatherDisplay:10.37,2013-03-03 20:28:00,
2013-03-03 12:33:00,52.9,43.4,29.94,South,184,0.0,0.0,70,0.00,CLR,,0.00,WeatherDisplay:10.37,2013-03-03 20:33:00,
2013-03-03 12:38:00,53.2,42.5,29.94,SSW,202,0.0,0.0,67,0.00,CLR,,0.00,WeatherDisplay:10.37,2013-03-03 20:38:00,
2013-03-03 12:43:00,53.3,42.6,29.94,South,171,0.0,0.0,67,0.00,CLR,,0.00,WeatherDisplay:10.37,2013-03-03 20:43:00,
2013-03-03 12:48:00,53.5,39.5,29.93,SSW,203,0.0,0.0,59,0.00,CLR,,0.00,WeatherDisplay:10.37,2013-03-03 20:48:00,
2013-03-03 12:53:00,53.6,37.3,29.93,SSW,198,0.0,0.0,54,0.00,CLR,,0.00,WeatherDisplay:10.37,2013-03-03 20:53:00,
2013-03-03 12:58:00,53.8,38.9,29.93,SSW,196,0.0,0.0,57,0.00,CLR,,0.00,WeatherDisplay:10.37,2013-03-03 20:58:00,
2013-03-03 13:03:00,53.9,39.0,29.93,SSW,196,0.0,0.0,57,0.00,CLR,,0.00,WeatherDisplay:10.37,2013-03-03 21:03:00,
2013-03-03 13:08:00,53.9,39.5,29.92,SSW,195,0.0,0.0,58,0.00,CLR,,0.00,WeatherDisplay:10.37,2013-03-03 21:08:00,
2013-03-03 13:13:00,53.9,39.9,29.92,SE,136,0.0,0.0,59,0.00,CLR,,0.00,WeatherDisplay:10.37,2013-03-03 21:13:00,
2013-03-03 13:18:00,53.8,40.2,29.92,SSE,161,0.0,0.0,60,0.00,CLR,,0.00,WeatherDisplay:10.37,2013-03-03 21:18:00,
2013-03-03 13:23:00,53.6,39.2,29.92,South,174,0.0,0.0,58,0.00,CLR,,0.00,WeatherDisplay:10.37,2013-03-03 21:23:00,
2013-03-03 13:28:00,53.5,40.8,29.92,South,178,0.0,0.0,62,0.00,CLR,,0.00,WeatherDisplay:10.37,2013-03-03 21:28:00,
2013-03-03 13:33:00,53.5,41.6,29.92,South,171,0.0,0.0,64,0.00,CLR,,0.00,WeatherDisplay:10.37,2013-03-03 21:33:00,
2013-03-03 13:38:00,53.2,41.3,29.93,SSE,167,0.0,0.0,64,0.00,CLR,,0.00,WeatherDisplay:10.37,2013-03-03 21:38:00,
2013-03-03 13:43:00,53.1,41.2,29.93,SE,143,0.0,0.0,64,0.00,CLR,,0.00,WeatherDisplay:10.37,2013-03-03 21:43:00,
2013-03-03 13:48:00,52.9,41.8,29.93,SSE,150,0.0,0.0,66,0.00,CLR,,0.00,WeatherDisplay:10.37,2013-03-03 21:48:00,
2013-03-03 13:53:00,52.8,41.4,29.93,SSE,150,0.0,0.0,65,0.00,CLR,,0.00,WeatherDisplay:10.37,2013-03-03 21:53:00,
2013-03-03 13:58:00,52.6,40.8,29.93,SSE,151,0.0,0.0,64,0.00,CLR,,0.00,WeatherDisplay:10.37,2013-03-03 21:58:00,
2013-03-03 14:03:00,52.5,43.0,29.93,SSE,164,0.0,0.0,70,0.00,CLR,,0.00,WeatherDisplay:10.37,2013-03-03 22:03:00,
2013-03-03 14:08:00,52.3,43.5,29.92,SSE,160,0.0,0.0,72,0.00,CLR,,0.00,WeatherDisplay:10.37,2013-03-03 22:08:00,
2013-03-03 14:13:00,52.0,43.3,29.93,SSE,148,0.0,0.0,72,0.00,CLR,,0.00,WeatherDisplay:10.37,2013-03-03 22:13:00,
2013-03-03 14:19:00,51.7,43.7,29.92,ESE,116,0.0,0.0,74,0.00,CLR,,0.00,WeatherDisplay:10.37,2013-03-03 22:19:00,
2013-03-03 14:24:00,51.4,43.0,29.93,SSE,164,0.0,0.0,73,0.00,CLR,,0.00,WeatherDisplay:10.37,2013-03-03 22:24:00,
2013-03-03 14:29:00,51.3,42.6,29.93,SE,143,0.0,0.0,72,0.00,CLR,,0.00,WeatherDisplay:10.37,2013-03-03 22:29:00,
2013-03-03 14:34:00,51.3,42.6,29.93,SSE,161,0.0,0.0,72,0.00,CLR,,0.00,WeatherDisplay:10.37,2013-03-03 22:34:00,
2013-03-03 14:39:00,51.3,42.2,29.93,South,171,0.0,0.0,71,0.00,CLR,,0.00,WeatherDisplay:10.37,2013-03-03 22:39:00,
2013-03-03 14:44:00,51.4,43.0,29.93,South,171,0.0,0.0,73,0.00,CLR,,0.00,WeatherDisplay:10.37,2013-03-03 22:44:00,
2013-03-03 14:49:00,51.6,42.5,29.93,SE,144,0.0,0.0,71,0.00,CLR,,0.00,WeatherDisplay:10.37,2013-03-03 22:49:00,
2013-03-03 14:54:00,51.6,42.5,29.93,SE,138,0.0,0.0,71,0.00,CLR,,0.00,WeatherDisplay:10.37,2013-03-03 22:54:00,
2013-03-03 14:59:00,51.7,42.6,29.93,SE,143,0.0,0.0,71,0.00,CLR,,0.00,WeatherDisplay:10.37,2013-03-03 22:59:00,
2013-03-03 15:04:00,51.7,42.6,29.93,SSE,148,0.0,0.0,71,0.00,CLR,,0.00,WeatherDisplay:10.37,2013-03-03 23:04:00,
2013-03-03 15:09:00,51.7,43.0,29.93,South,182,0.0,0.0,72,0.00,CLR,,0.00,WeatherDisplay:10.37,2013-03-03 23:09:00,
2013-03-03 15:14:00,51.7,43.0,29.93,SSE,161,0.0,0.0,72,0.00,CLR,,0.00,WeatherDisplay:10.37,2013-03-03 23:14:00,
2013-03-03 15:19:00,51.6,42.9,29.93,SSE,150,0.0,0.0,72,0.00,CLR,,0.00,WeatherDisplay:10.37,2013-03-03 23:19:00,
2013-03-03 15:24:00,51.6,42.1,29.93,SSW,196,0.0,0.0,70,0.00,CLR,,0.00,WeatherDisplay:10.37,2013-03-03 23:24:00,
2013-03-03 15:29:00,51.7,42.2,29.93,SSE,154,0.0,0.0,70,0.00,CLR,,0.00,WeatherDisplay:10.37,2013-03-03 23:29:00,
2013-03-03 15:34:00,51.9,42.4,29.93,SE,144,0.0,0.0,70,0.00,CLR,,0.00,WeatherDisplay:10.37,2013-03-03 23:34:00,
2013-03-03 15:39:00,51.9,41.7,29.93,South,172,0.0,0.0,68,0.00,CLR,,0.00,WeatherDisplay:10.37,2013-03-03 23:39:00,
2013-03-03 15:44:00,52.0,41.8,29.93,South,169,0.0,0.0,68,0.00,CLR,,0.00,WeatherDisplay:10.37,2013-03-03 23:44:00,
2013-03-03 15:49:00,52.0,41.8,29.93,South,176,0.0,0.0,68,0.00,CLR,,0.00,WeatherDisplay:10.37,2013-03-03 23:49:00,
2013-03-03 15:54:00,52.0,40.6,29.93,SSE,157,0.0,0.0,65,0.00,CLR,,0.00,WeatherDisplay:10.37,2013-03-03 23:54:00,
2013-03-03 15:59:00,52.3,41.3,29.92,South,185,0.0,0.0,66,0.00,CLR,,0.00,WeatherDisplay:10.37,2013-03-03 23:59:00,
2013-03-03 16:04:00,52.6,41.9,29.92,SSW,196,0.0,0.0,67,0.00,CLR,,0.00,WeatherDisplay:10.37,2013-03-04 00:04:00,
2013-03-03 16:09:00,52.5,41.5,29.92,South,191,0.0,0.0,66,0.00,CLR,,0.00,WeatherDisplay:10.37,2013-03-04 00:09:00,
2013-03-03 16:14:00,52.2,41.2,29.92,SE,140,0.0,0.0,66,0.00,CLR,,0.00,WeatherDisplay:10.37,2013-03-04 00:14:00,
2013-03-03 16:19:00,52.2,41.6,29.93,SE,140,0.0,0.0,67,0.00,CLR,,0.00,WeatherDisplay:10.37,2013-03-04 00:19:00,
2013-03-03 16:24:00,52.2,40.4,29.93,SSE,165,0.0,0.0,64,0.00,CLR,,0.00,WeatherDisplay:10.37,2013-03-04 00:24:00,
2013-03-03 16:29:00,52.2,40.4,29.93,SE,144,0.0,0.0,64,0.00,CLR,,0.00,WeatherDisplay:10.37,2013-03-04 00:29:00,
2013-03-03 16:34:00,52.0,39.8,29.93,SE,140,0.0,0.0,63,0.00,CLR,,0.00,WeatherDisplay:10.37,2013-03-04 00:34:00,
2013-03-03 16:39:00,52.0,39.4,29.93,SE,143,0.0,0.0,62,0.00,CLR,,0.00,WeatherDisplay:10.37,2013-03-04 00:39:00,
2013-03-03 16:44:00,51.9,40.1,29.93,SSW,192,0.0,0.0,64,0.00,CLR,,0.00,WeatherDisplay:10.37,2013-03-04 00:44:00,
2013-03-03 16:49:00,51.9,39.7,29.92,South,181,0.0,0.0,63,0.00,CLR,,0.00,WeatherDisplay:10.37,2013-03-04 00:49:00,
2013-03-03 16:54:00,51.7,40.3,29.92,South,181,0.0,0.0,65,0.00,CLR,,0.00,WeatherDisplay:10.37,2013-03-04 00:54:00,
2013-03-03 16:59:00,51.7,39.9,29.93,SSW,200,0.0,0.0,64,0.00,CLR,,0.00,WeatherDisplay:10.37,2013-03-04 00:59:00,
2013-03-03 17:04:00,51.6,40.2,29.93,SSW,200,0.0,0.0,65,0.00,CLR,,0.00,WeatherDisplay:10.37,2013-03-04 01:04:00,
2013-03-03 17:09:00,51.4,40.4,29.93,SSW,192,0.0,0.0,66,0.00,CLR,,0.00,WeatherDisplay:10.37,2013-03-04 01:09:00,
2013-03-03 17:14:00,51.1,40.1,29.93,SSW,196,0.0,0.0,66,0.00,CLR,,0.00,WeatherDisplay:10.37,2013-03-04 01:14:00,
2013-03-03 17:19:00,51.0,40.4,29.94,SSW,195,0.0,0.0,67,0.00,CLR,,0.00,WeatherDisplay:10.37,2013-03-04 01:19:00,
2013-03-03 17:24:00,50.8,40.6,29.94,SSW,196,0.0,0.0,68,0.00,CLR,,0.00,WeatherDisplay:10.37,2013-03-04 01:24:00,
2013-03-03 17:29:00,50.5,40.7,29.94,SSW,196,0.0,0.0,69,0.00,CLR,,0.00,WeatherDisplay:10.37,2013-03-04 01:29:00,
2013-03-03 17:34:00,50.1,40.7,29.94,SSW,196,0.0,0.0,70,0.00,CLR,,0.00,WeatherDisplay:10.37,2013-03-04 01:34:00,
2013-03-03 17:39:00,49.9,40.9,29.94,SSW,196,0.0,0.0,71,0.00,CLR,,0.00,WeatherDisplay:10.37,2013-03-04 01:39:00,
2013-03-03 17:44:00,49.5,40.8,29.94,SSW,196,0.0,0.0,72,0.00,CLR,,0.00,WeatherDisplay:10.37,2013-03-04 01:44:00,
2013-03-03 17:49:00,49.4,41.1,29.94,SSW,196,0.0,0.0,73,0.00,CLR,,0.00,WeatherDisplay:10.37,2013-03-04 01:49:00,
2013-03-03 17:54:00,49.1,41.2,29.94,SSW,196,0.0,0.0,74,0.00,CLR,,0.00,WeatherDisplay:10.37,2013-03-04 01:54:00,
2013-03-03 17:59:00,48.9,41.3,29.94,SSW,196,0.0,0.0,75,0.00,CLR,,0.00,WeatherDisplay:10.37,2013-03-04 01:59:00,
2013-03-03 18:04:00,48.8,41.6,29.94,South,178,0.0,0.0,76,0.00,CLR,,0.00,WeatherDisplay:10.37,2013-03-04 02:04:00,
2013-03-03 18:09:00,48.6,41.4,29.94,South,178,0.0,0.0,76,0.00,CLR,,0.00,WeatherDisplay:10.37,2013-03-04 02:09:00,
2013-03-03 18:14:00,48.6,41.7,29.94,South,178,0.0,0.0,77,0.00,CLR,,0.00,WeatherDisplay:10.37,2013-03-04 02:14:00,
2013-03-03 18:19:00,48.6,41.7,29.94,South,178,0.0,0.0,77,0.00,CLR,,0.00,WeatherDisplay:10.37,2013-03-04 02:19:00,
2013-03-03 18:24:00,48.6,41.7,29.94,South,178,0.0,0.0,77,0.00,CLR,,0.00,WeatherDisplay:10.37,2013-03-04 02:24:00,
2013-03-03 18:29:00,48.5,41.6,29.94,South,178,0.0,0.0,77,0.00,CLR,,0.00,WeatherDisplay:10.37,2013-03-04 02:29:00,
2013-03-03 18:34:00,48.5,42.0,29.94,South,178,0.0,0.0,78,0.00,CLR,,0.00,WeatherDisplay:10.37,2013-03-04 02:34:00,
2013-03-03 18:39:00,48.5,42.0,29.94,South,178,0.0,0.0,78,0.00,CLR,,0.00,WeatherDisplay:10.37,2013-03-04 02:39:00,
2013-03-03 18:44:00,48.3,42.1,29.95,South,178,0.0,0.0,79,0.00,CLR,,0.00,WeatherDisplay:10.37,2013-03-04 02:44:00,
2013-03-03 18:49:00,48.3,42.1,29.95,South,178,0.0,0.0,79,0.00,CLR,,0.00,WeatherDisplay:10.37,2013-03-04 02:49:00,
2013-03-03 18:54:00,48.2,42.0,29.95,South,178,0.0,0.0,79,0.00,CLR,,0.00,WeatherDisplay:10.37,2013-03-04 02:54:00,
2013-03-03 18:59:00,48.2,42.0,29.95,South,178,0.0,0.0,79,0.00,CLR,,0.00,WeatherDisplay:10.37,2013-03-04 02:59:00,
2013-03-03 19:04:00,48.0,41.5,29.94,South,178,0.0,0.0,78,0.00,CLR,,0.00,WeatherDisplay:10.37,2013-03-04 03:04:00,
2013-03-03 19:09:00,48.0,41.5,29.94,South,178,0.0,0.0,78,0.00,CLR,,0.00,WeatherDisplay:10.37,2013-03-04 03:09:00,
2013-03-03 19:14:00,48.0,41.5,29.95,South,178,0.0,0.0,78,0.00,CLR,,0.00,WeatherDisplay:10.37,2013-03-04 03:14:00,
2013-03-03 19:19:00,47.9,41.4,29.95,South,178,0.0,0.0,78,0.00,CLR,,0.00,WeatherDisplay:10.37,2013-03-04 03:19:00,
2013-03-03 19:24:00,47.9,41.4,29.95,South,182,0.0,0.0,78,0.00,CLR,,0.00,WeatherDisplay:10.37,2013-03-04 03:24:00,
2013-03-03 19:29:00,47.9,41.4,29.95,South,182,0.0,0.0,78,0.00,CLR,,0.00,WeatherDisplay:10.37,2013-03-04 03:29:00,
2013-03-03 19:35:00,47.9,41.4,29.95,South,182,0.0,0.0,78,0.00,CLR,,0.00,WeatherDisplay:10.37,2013-03-04 03:35:00,
2013-03-03 19:40:00,47.9,41.4,29.95,South,182,0.0,0.0,78,0.00,CLR,,0.00,WeatherDisplay:10.37,2013-03-04 03:40:00,
2013-03-03 19:45:00,47.9,41.4,29.95,South,182,0.0,0.0,78,0.00,CLR,,0.00,WeatherDisplay:10.37,2013-03-04 03:45:00,
2013-03-03 19:50:00,47.9,41.4,29.95,South,182,0.0,0.0,78,0.00,CLR,,0.00,WeatherDisplay:10.37,2013-03-04 03:50:00,
2013-03-03 19:55:00,47.9,41.4,29.95,South,182,0.0,0.0,78,0.00,CLR,,0.00,WeatherDisplay:10.37,2013-03-04 03:55:00,
2013-03-03 20:00:00,47.9,41.7,29.95,South,182,0.0,0.0,79,0.00,CLR,,0.00,WeatherDisplay:10.37,2013-03-04 04:00:00,
2013-03-03 20:05:00,47.9,41.7,29.95,South,182,0.0,0.0,79,0.00,CLR,,0.00,WeatherDisplay:10.37,2013-03-04 04:05:00,
2013-03-03 20:10:00,47.9,41.7,29.95,South,182,0.0,0.0,79,0.00,CLR,,0.00,WeatherDisplay:10.37,2013-03-04 04:10:00,
2013-03-03 20:15:00,47.7,41.5,29.95,South,182,0.0,0.0,79,0.00,CLR,,0.00,WeatherDisplay:10.37,2013-03-04 04:15:00,
2013-03-03 20:20:00,47.7,41.5,29.95,South,182,0.0,0.0,79,0.00,CLR,,0.00,WeatherDisplay:10.37,2013-03-04 04:20:00,
2013-03-03 20:25:00,47.7,41.2,29.95,South,182,0.0,0.0,78,0.00,CLR,,0.00,WeatherDisplay:10.37,2013-03-04 04:25:00,
2013-03-03 20:30:00,47.6,41.1,29.95,South,182,0.0,0.0,78,0.00,CLR,,0.00,WeatherDisplay:10.37,2013-03-04 04:30:00,
2013-03-03 20:35:00,47.6,41.1,29.95,South,182,0.0,0.0,78,0.00,CLR,,0.00,WeatherDisplay:10.37,2013-03-04 04:35:00,
2013-03-03 20:40:00,47.6,41.1,29.95,South,182,0.0,0.0,78,0.00,CLR,,0.00,WeatherDisplay:10.37,2013-03-04 04:40:00,
2013-03-03 20:45:00,47.6,41.1,29.95,South,182,0.0,0.0,78,0.00,CLR,,0.00,WeatherDisplay:10.37,2013-03-04 04:45:00,
2013-03-03 20:50:00,47.4,40.6,29.96,South,182,0.0,0.0,77,0.00,CLR,,0.00,WeatherDisplay:10.37,2013-03-04 04:50:00,
2013-03-03 20:55:00,47.4,40.6,29.96,South,182,0.0,0.0,77,0.00,CLR,,0.00,WeatherDisplay:10.37,2013-03-04 04:55:00,
2013-03-03 21:00:00,47.4,40.2,29.96,South,182,0.0,0.0,76,0.00,CLR,,0.00,WeatherDisplay:10.37,2013-03-04 05:00:00,
2013-03-03 21:05:00,47.3,40.1,29.96,South,182,0.0,0.0,76,0.00,CLR,,0.00,WeatherDisplay:10.37,2013-03-04 05:05:00,
2013-03-03 21:10:00,47.3,40.5,29.96,South,182,0.0,0.0,77,0.00,CLR,,0.00,WeatherDisplay:10.37,2013-03-04 05:10:00,
2013-03-03 21:15:00,47.3,40.8,29.96,South,182,0.0,0.0,78,0.00,CLR,,0.00,WeatherDisplay:10.37,2013-03-04 05:15:00,
2013-03-03 21:20:00,47.3,40.8,29.96,South,182,0.0,0.0,78,0.00,CLR,,0.00,WeatherDisplay:10.37,2013-03-04 05:20:00,
2013-03-03 21:25:00,47.1,40.3,29.96,South,182,0.0,0.0,77,0.00,CLR,,0.00,WeatherDisplay:10.37,2013-03-04 05:25:00,
2013-03-03 21:30:00,47.1,40.3,29.96,South,182,0.0,0.0,77,0.00,CLR,,0.00,WeatherDisplay:10.37,2013-03-04 05:30:00,
2013-03-03 21:35:00,47.1,40.6,29.96,South,182,0.0,0.0,78,0.00,CLR,,0.00,WeatherDisplay:10.37,2013-03-04 05:35:00,
2013-03-03 21:40:00,47.0,40.5,29.96,South,182,0.0,0.0,78,0.00,CLR,,0.00,WeatherDisplay:10.37,2013-03-04 05:40:00,
2013-03-03 21:45:00,47.0,40.5,29.96,South,182,0.0,0.0,78,0.00,CLR,,0.00,WeatherDisplay:10.37,2013-03-04 05:45:00,
2013-03-03 21:50:00,47.0,40.8,29.96,South,182,0.0,0.0,79,0.00,CLR,,0.00,WeatherDisplay:10.37,2013-03-04 05:50:00,
2013-03-03 21:55:00,46.8,40.6,29.96,South,182,0.0,0.0,79,0.00,CLR,,0.00,WeatherDisplay:10.37,2013-03-04 05:55:00,
2013-03-03 22:00:00,46.7,40.5,29.96,South,182,0.0,0.0,79,0.00,CLR,,0.00,WeatherDisplay:10.37,2013-03-04 06:00:00,
2013-03-03 22:05:00,46.7,40.5,29.96,South,182,0.0,0.0,79,0.00,CLR,,0.00,WeatherDisplay:10.37,2013-03-04 06:05:00,
2013-03-03 22:10:00,46.4,40.2,29.97,South,182,0.0,0.0,79,0.00,CLR,,0.00,WeatherDisplay:10.37,2013-03-04 06:10:00,
2013-03-03 22:15:00,46.4,40.2,29.97,South,182,0.0,0.0,79,0.00,CLR,,0.00,WeatherDisplay:10.37,2013-03-04 06:15:00,
2013-03-03 22:20:00,46.4,39.9,29.97,South,182,0.0,0.0,78,0.00,CLR,,0.00,WeatherDisplay:10.37,2013-03-04 06:20:00,
2013-03-03 22:25:00,46.2,39.7,29.96,South,182,0.0,0.0,78,0.00,CLR,,0.00,WeatherDisplay:10.37,2013-03-04 06:25:00,
2013-03-03 22:30:00,46.2,39.7,29.97,South,182,0.0,0.0,78,0.00,CLR,,0.00,WeatherDisplay:10.37,2013-03-04 06:30:00,
2013-03-03 22:35:00,46.2,39.7,29.96,South,182,0.0,0.0,78,0.00,CLR,,0.00,WeatherDisplay:10.37,2013-03-04 06:35:00,
2013-03-03 22:40:00,46.2,39.7,29.96,South,182,0.0,0.0,78,0.00,CLR,,0.00,WeatherDisplay:10.37,2013-03-04 06:40:00,
2013-03-03 22:45:00,46.2,39.7,29.96,South,182,0.0,0.0,78,0.00,CLR,,0.00,WeatherDisplay:10.37,2013-03-04 06:45:00,
2013-03-03 22:50:00,46.2,39.7,29.96,South,182,0.0,0.0,78,0.00,CLR,,0.00,WeatherDisplay:10.37,2013-03-04 06:50:00,
2013-03-03 22:55:00,46.1,39.6,29.96,South,182,0.0,0.0,78,0.00,CLR,,0.00,WeatherDisplay:10.37,2013-03-04 06:55:00,
2013-03-03 23:00:00,46.1,39.6,29.96,South,182,0.0,0.0,78,0.00,CLR,,0.00,WeatherDisplay:10.37,2013-03-04 07:00:00,
2013-03-03 23:05:00,45.8,39.3,29.96,South,182,0.0,0.0,78,0.00,CLR,,0.00,WeatherDisplay:10.37,2013-03-04 07:05:00,
2013-03-03 23:10:00,45.8,39.0,29.96,South,182,0.0,0.0,77,0.00,CLR,,0.00,WeatherDisplay:10.37,2013-03-04 07:10:00,
2013-03-03 23:15:00,45.5,39.0,29.96,South,182,0.0,0.0,78,0.00,CLR,,0.00,WeatherDisplay:10.37,2013-03-04 07:15:00,
2013-03-03 23:20:00,45.4,38.9,29.97,South,182,0.0,0.0,78,0.00,CLR,,0.00,WeatherDisplay:10.37,2013-03-04 07:20:00,
2013-03-03 23:25:00,45.2,38.7,29.97,South,182,0.0,0.0,78,0.00,CLR,,0.00,WeatherDisplay:10.37,2013-03-04 07:25:00,
2013-03-03 23:30:00,45.1,39.0,29.97,South,182,0.0,0.0,79,0.00,CLR,,0.00,WeatherDisplay:10.37,2013-03-04 07:30:00,
2013-03-03 23:35:00,44.8,38.7,29.97,South,182,0.0,0.0,79,0.00,CLR,,0.00,WeatherDisplay:10.37,2013-03-04 07:35:00,
2013-03-03 23:41:00,44.5,38.4,29.97,South,182,0.0,0.0,79,0.00,CLR,,0.00,WeatherDisplay:10.37,2013-03-04 07:41:00,
2013-03-03 23:46:00,44.5,38.4,29.97,South,182,0.0,0.0,79,0.00,CLR,,0.00,WeatherDisplay:10.37,2013-03-04 07:46:00,
2013-03-03 23:51:00,44.3,38.2,29.97,South,182,0.0,0.0,79,0.00,CLR,,0.00,WeatherDisplay:10.37,2013-03-04 07:51:00,
2013-03-03 23:56:00,44.1,38.0,29.97,South,182,0.0,0.0,79,0.00,CLR,,0.00,WeatherDisplay:10.37,2013-03-04 07:56:00,